Вернуться в каталог

STARLINK-4556

АктивенСвязьVLEO
NORAD 53578·PAYLOAD·🇺🇸 United States

Запущен Aug 19, 2022 с Cape Canaveral Space Force Station

Loading…

Ближайшие Пролёты (ближайшие 24 часа)

TLE

СвежийSource: CelesTrak SupGP

Эпоха: Sep 15, 2026, 03:03 UTC

1 53578C 22101BD  26258.12756944 -.00015932  00000+0 -47072-3 0  2587
2 53578  53.1575 268.6804 0001345  83.1787 109.6786 15.34398662    12

Отслеживайте STARLINK-4556 в реальном времени с AllMySat

Download on the App Store